User: anonymous   Login
Location: Caltech
(34.1382°N, 118.1253°W)
Time: 20:00:41
(UTC-07:00)
Language:

OAO 2 Rocket - Orbit

View from above orbital plane
View from above orbital plane
View from above satellite
View from above satellite

Ground track
Ground track

The orbit data is extracted from the following two-line orbital elements,

1  3598U 68110B   18174.62528528 +.00000042 +00000-0 +14508-4 0  9998
2  3598 034.9947 039.6471 0049192 359.9069 000.1609 14.54376539599678
Epoch (UTC): 23 June 2018 15:00:24
Eccentricity: 0.0049192
inclination: 34.9947°
perigee height: 676 km
apogee height: 746 km
right ascension of ascending node: 39.6471°
argument of perigee: 359.9069°
revolutions per day: 14.54376539
mean anomaly at epoch: 0.1609°
orbit number at epoch: 59967

The dashed part of the orbit path shows where the satellite is in the earth's shadow,  

DLR